Location: *
(57.8420°S, 159.8600°W)
Time: 11:20:12
(UTC+00:00)

Genesis I - Pass Details

Date: 18 May 2021
Orbit: 479 x 540 km, 64.5° (Epoch: 22 June)

Event Time Altitude Azimuth Distance (km) Brightness Sun altitude
Rises 04:09:13 0° 335° (NNW) 2,655 7.5 -13.0°
Reaches altitude 10° 04:11:30 10° 343° (NNW) 1,762 6.3 -13.3°
Maximum altitude 04:15:09 37° 50° (NE) 828 3.9 -13.8°
Enters shadow 04:16:48 25° 98° (E) 1,086 4.2 -14.0°
